Location: Unspecified
(47.7670°N, 8.8522°E)
Time: 03:49:36
(UTC+01:00)

Tiangong - Pass Details

Date: 02 December 2022
Orbit: 383 x 386 km, 41.5° (Epoch: 03 February)

Event Time Altitude Azimuth Distance (km) Brightness Sun altitude
Rises 17:47:23 0° 221° (SW) 2,244 2.9 -11.8°
Reaches altitude 10° 17:50:05 10° 196° (SSW) 1,395 1.2 -12.3°
Maximum altitude 17:51:56 15° 160° (SSE) 1,153 0.3 -12.6°
Enters shadow 17:53:39 11° 126° (SE) 1,367 0.3 -12.8°
